Time,TemperatureF,DewpointF,PressureIn,WindDirection,WindDirectionDegrees,WindSpeedMPH,WindSpeedGustMPH,Humidity,HourlyPrecipIn,Conditions,Clouds,dailyrainin,SoftwareType,DateUTC
2013-03-23 00:04:00,42.5,36.0,30.00,SSW,200,0.0,1.0,77,0.00,,,0.00,weatherlink.com 1.10,2013-03-23 04:04:00,
2013-03-23 00:19:00,41.9,37.0,30.00,SSW,200,0.0,1.0,81,0.00,,,0.00,weatherlink.com 1.10,2013-03-23 04:19:00,
2013-03-23 00:34:00,41.2,37.0,30.00,SSW,200,0.0,0.0,84,0.00,,,0.00,weatherlink.com 1.10,2013-03-23 04:34:00,
2013-03-23 00:49:00,40.9,37.0,30.00,SSW,200,0.0,0.0,86,0.00,,,0.00,weatherlink.com 1.10,2013-03-23 04:49:00,
2013-03-23 01:19:00,40.5,37.0,29.99,SSW,200,0.0,1.0,88,0.00,,,0.00,weatherlink.com 1.10,2013-03-23 05:19:00,
2013-03-23 01:34:00,40.4,37.0,29.99,SSW,200,0.0,0.0,87,0.00,,,0.00,weatherlink.com 1.10,2013-03-23 05:34:00,
2013-03-23 01:49:00,40.4,37.0,29.99,SSW,200,0.0,1.0,88,0.00,,,0.00,weatherlink.com 1.10,2013-03-23 05:49:00,
2013-03-23 02:19:00,40.4,38.0,29.98,SSW,200,0.0,0.0,90,0.00,,,0.00,weatherlink.com 1.10,2013-03-23 06:19:00,
2013-03-23 02:34:00,40.5,38.0,29.98,SSW,200,0.0,1.0,89,0.00,,,0.00,weatherlink.com 1.10,2013-03-23 06:34:00,
2013-03-23 02:49:00,40.6,37.0,29.97,SSW,200,0.0,0.0,86,0.00,,,0.00,weatherlink.com 1.10,2013-03-23 06:49:00,
2013-03-23 03:19:00,41.0,37.0,29.97,SSW,200,0.0,1.0,84,0.00,,,0.00,weatherlink.com 1.10,2013-03-23 07:19:00,
2013-03-23 03:34:00,41.1,37.0,29.96,SSW,200,0.0,0.0,86,0.00,,,0.00,weatherlink.com 1.10,2013-03-23 07:34:00,
2013-03-23 04:04:00,41.3,35.0,29.95,SSW,200,0.0,0.0,78,0.00,,,0.00,weatherlink.com 1.10,2013-03-23 08:04:00,
2013-03-23 04:34:00,40.8,37.0,29.97,SSW,200,0.0,2.0,86,0.01,,,0.01,weatherlink.com 1.10,2013-03-23 08:34:00,
2013-03-23 04:49:00,40.0,36.0,29.93,East,100,0.0,3.0,86,0.02,,,0.02,weatherlink.com 1.10,2013-03-23 08:49:00,
2013-03-23 05:04:00,39.4,37.0,29.95,East,100,0.0,1.0,89,0.03,,,0.03,weatherlink.com 1.10,2013-03-23 09:04:00,
2013-03-23 05:19:00,39.1,36.0,29.96,East,99,0.0,0.0,89,0.04,,,0.04,weatherlink.com 1.10,2013-03-23 09:19:00,
2013-03-23 05:34:00,38.9,36.0,29.95,East,99,0.0,5.0,90,0.03,,,0.04,weatherlink.com 1.10,2013-03-23 09:34:00,
2013-03-23 06:05:00,38.6,36.0,29.95,ESE,102,0.0,1.0,91,0.01,,,0.04,weatherlink.com 1.10,2013-03-23 10:05:00,
2013-03-23 06:19:00,38.7,36.0,29.95,ESE,102,0.0,1.0,91,0.00,,,0.04,weatherlink.com 1.10,2013-03-23 10:19:00,
2013-03-23 06:35:00,38.7,36.0,29.96,ESE,102,0.0,2.0,90,0.00,,,0.04,weatherlink.com 1.10,2013-03-23 10:35:00,
2013-03-23 06:49:00,38.8,36.0,29.97,ESE,102,0.0,1.0,90,0.00,,,0.04,weatherlink.com 1.10,2013-03-23 10:49:00,
2013-03-23 07:04:00,38.8,36.0,29.98,ESE,102,0.0,0.0,91,0.01,,,0.05,weatherlink.com 1.10,2013-03-23 11:04:00,
2013-03-23 07:19:00,38.7,36.0,29.97,ESE,102,0.0,2.0,91,0.03,,,0.07,weatherlink.com 1.10,2013-03-23 11:19:00,
2013-03-23 07:35:00,38.5,36.0,29.96,SE,125,0.0,3.0,92,0.05,,,0.09,weatherlink.com 1.10,2013-03-23 11:35:00,
2013-03-23 07:50:00,38.4,36.0,29.95,SE,125,0.0,2.0,92,0.05,,,0.09,weatherlink.com 1.10,2013-03-23 11:50:00,
2013-03-23 08:20:00,38.6,37.0,29.98,SE,126,0.0,1.0,93,0.02,,,0.09,weatherlink.com 1.10,2013-03-23 12:20:00,
2013-03-23 08:35:00,38.8,37.0,29.98,SE,126,0.0,0.0,93,0.00,,,0.09,weatherlink.com 1.10,2013-03-23 12:35:00,
2013-03-23 08:50:00,39.0,37.0,29.98,ESE,108,0.0,1.0,92,0.00,,,0.09,weatherlink.com 1.10,2013-03-23 12:50:00,
2013-03-23 09:05:00,39.3,37.0,29.98,ESE,107,0.0,1.0,92,0.00,,,0.09,weatherlink.com 1.10,2013-03-23 13:05:00,
2013-03-23 09:35:00,39.8,37.0,29.98,ESE,109,0.0,2.0,90,0.00,,,0.09,weatherlink.com 1.10,2013-03-23 13:35:00,
2013-03-23 09:50:00,40.1,38.0,29.97,ESE,109,0.0,0.0,91,0.00,,,0.09,weatherlink.com 1.10,2013-03-23 13:50:00,
2013-03-23 10:05:00,40.6,38.0,29.98,SE,136,0.0,3.0,91,0.00,,,0.09,weatherlink.com 1.10,2013-03-23 14:05:00,
2013-03-23 10:20:00,41.1,38.0,29.97,SE,136,0.0,2.0,89,0.00,,,0.09,weatherlink.com 1.10,2013-03-23 14:20:00,
2013-03-23 10:35:00,41.5,38.0,29.97,SE,134,0.0,2.0,88,0.00,,,0.09,weatherlink.com 1.10,2013-03-23 14:35:00,
2013-03-23 10:50:00,42.0,39.0,29.97,South,171,1.0,3.0,88,0.00,,,0.09,weatherlink.com 1.10,2013-03-23 14:50:00,
2013-03-23 11:20:00,42.8,39.0,29.97,SE,138,1.0,3.0,86,0.00,,,0.09,weatherlink.com 1.10,2013-03-23 15:20:00,
2013-03-23 11:35:00,43.3,39.0,29.97,SE,145,0.0,3.0,83,0.00,,,0.09,weatherlink.com 1.10,2013-03-23 15:35:00,
2013-03-23 11:50:00,43.5,38.0,29.98,East,90,0.0,3.0,82,0.00,,,0.09,weatherlink.com 1.10,2013-03-23 15:50:00,
2013-03-23 12:05:00,43.7,39.0,29.98,ESE,118,1.0,3.0,82,0.00,,,0.09,weatherlink.com 1.10,2013-03-23 16:05:00,
2013-03-23 12:20:00,44.1,39.0,29.97,SE,126,0.0,2.0,83,0.00,,,0.09,weatherlink.com 1.10,2013-03-23 16:20:00,
2013-03-23 12:35:00,44.9,39.0,29.96,North,355,0.0,3.0,80,0.00,,,0.09,weatherlink.com 1.10,2013-03-23 16:35:00,
2013-03-23 12:50:00,45.7,40.0,29.96,NW,321,0.0,3.0,79,0.00,,,0.09,weatherlink.com 1.10,2013-03-23 16:50:00,
2013-03-23 13:05:00,45.9,40.0,29.95,SE,126,0.0,4.0,81,0.00,,,0.09,weatherlink.com 1.10,2013-03-23 17:05:00,
2013-03-23 13:35:00,46.9,41.0,29.93,ESE,119,1.0,6.0,81,0.00,,,0.09,weatherlink.com 1.10,2013-03-23 17:35:00,
2013-03-23 13:50:00,47.6,41.0,29.93,WNW,294,0.0,3.0,79,0.00,,,0.09,weatherlink.com 1.10,2013-03-23 17:50:00,
2013-03-23 14:05:00,47.9,42.0,29.93,SE,131,0.0,4.0,79,0.00,,,0.09,weatherlink.com 1.10,2013-03-23 18:05:00,
2013-03-23 14:20:00,48.3,42.0,29.92,NNE,23,1.0,2.0,80,0.00,,,0.09,weatherlink.com 1.10,2013-03-23 18:20:00,
2013-03-23 14:50:00,50.1,43.0,29.91,ESE,114,0.0,5.0,77,0.00,,,0.09,weatherlink.com 1.10,2013-03-23 18:50:00,
2013-03-23 15:05:00,50.6,44.0,29.90,SE,134,0.0,3.0,77,0.00,,,0.09,weatherlink.com 1.10,2013-03-23 19:05:00,
2013-03-23 15:20:00,51.1,44.0,29.89,NW,311,4.0,5.0,76,0.00,,,0.09,weatherlink.com 1.10,2013-03-23 19:20:00,
2013-03-23 16:05:00,53.1,45.0,29.88,ESE,120,0.0,5.0,74,0.00,,,0.09,weatherlink.com 1.10,2013-03-23 20:05:00,
2013-03-23 16:20:00,53.1,45.0,29.87,NNW,331,0.0,5.0,73,0.00,,,0.09,weatherlink.com 1.10,2013-03-23 20:20:00,
2013-03-23 16:35:00,53.7,45.0,29.85,SE,134,1.0,3.0,72,0.00,,,0.09,weatherlink.com 1.10,2013-03-23 20:35:00,
2013-03-23 16:51:00,53.9,45.0,29.84,WSW,242,0.0,4.0,72,0.00,,,0.09,weatherlink.com 1.10,2013-03-23 20:51:00,
2013-03-23 17:06:00,53.5,45.0,29.86,SSE,148,0.0,4.0,72,0.00,,,0.09,weatherlink.com 1.10,2013-03-23 21:06:00,
2013-03-23 17:36:00,53.0,44.0,29.86,SSE,152,0.0,1.0,72,0.00,,,0.09,weatherlink.com 1.10,2013-03-23 21:36:00,
2013-03-23 17:51:00,53.4,44.0,29.85,SSE,152,1.0,2.0,71,0.00,,,0.09,weatherlink.com 1.10,2013-03-23 21:51:00,
2013-03-23 18:06:00,53.8,45.0,29.86,WNW,288,0.0,3.0,71,0.00,,,0.09,weatherlink.com 1.10,2013-03-23 22:06:00,
2013-03-23 18:21:00,53.8,45.0,29.87,WNW,289,0.0,1.0,71,0.00,,,0.09,weatherlink.com 1.10,2013-03-23 22:21:00,
2013-03-23 18:36:00,53.8,45.0,29.87,WNW,289,0.0,1.0,72,0.00,,,0.09,weatherlink.com 1.10,2013-03-23 22:36:00,
2013-03-23 18:51:00,53.8,45.0,29.85,WNW,289,0.0,1.0,71,0.00,,,0.09,weatherlink.com 1.10,2013-03-23 22:51:00,
2013-03-23 19:06:00,53.4,45.0,29.80,WNW,289,0.0,1.0,74,0.00,,,0.09,weatherlink.com 1.10,2013-03-23 23:06:00,
2013-03-23 19:21:00,53.2,45.0,29.81,NW,311,0.0,3.0,73,0.00,,,0.09,weatherlink.com 1.10,2013-03-23 23:21:00,
2013-03-23 19:36:00,52.9,45.0,29.80,SE,146,0.0,4.0,74,0.00,,,0.09,weatherlink.com 1.10,2013-03-23 23:36:00,
2013-03-23 19:51:00,52.6,45.0,29.82,SSE,155,0.0,2.0,74,0.00,,,0.09,weatherlink.com 1.10,2013-03-23 23:51:00,
2013-03-23 20:36:00,51.3,45.0,29.81,SE,130,0.0,1.0,78,0.00,,,0.09,weatherlink.com 1.10,2013-03-24 00:36:00,
2013-03-23 21:21:00,49.2,44.0,29.78,SE,130,0.0,0.0,83,0.00,,,0.09,weatherlink.com 1.10,2013-03-24 01:21:00,
2013-03-23 21:51:00,48.2,44.0,29.75,SE,124,0.0,3.0,85,0.00,,,0.09,weatherlink.com 1.10,2013-03-24 01:51:00,
2013-03-23 22:06:00,48.7,44.0,29.75,SE,124,0.0,1.0,84,0.00,,,0.09,weatherlink.com 1.10,2013-03-24 02:06:00,
2013-03-23 22:21:00,48.8,44.0,29.76,SE,124,0.0,1.0,84,0.00,,,0.09,weatherlink.com 1.10,2013-03-24 02:21:00,
2013-03-23 22:36:00,48.8,45.0,29.78,SE,124,0.0,0.0,86,0.00,,,0.09,weatherlink.com 1.10,2013-03-24 02:36:00,
2013-03-23 22:51:00,49.0,45.0,29.76,ESE,123,0.0,0.0,86,0.00,,,0.09,weatherlink.com 1.10,2013-03-24 02:51:00,
2013-03-23 23:06:00,49.0,45.0,29.75,SE,124,0.0,0.0,87,0.00,,,0.09,weatherlink.com 1.10,2013-03-24 03:06:00,
2013-03-23 23:21:00,48.7,46.0,29.75,ESE,123,0.0,1.0,89,0.00,,,0.09,weatherlink.com 1.10,2013-03-24 03:21:00,
2013-03-23 23:36:00,48.4,45.0,29.75,SE,124,0.0,1.0,88,0.00,,,0.09,weatherlink.com 1.10,2013-03-24 03:36:00,
2013-03-23 23:51:00,48.6,46.0,29.79,SE,125,0.0,2.0,89,0.01,,,0.10,weatherlink.com 1.10,2013-03-24 03:51:00,